When you browse on this site, cookies collect data to enhance your experience and personalize the content and advertising you see.
Visit our Privacy Policy to learn more. By continuing to use the site, you agree to this use of cookies and data.

Hourly Weather Bedford

Today, 24 September, Thursday

Time Temperature Precipitation Wind Pressure Humidity
00:00 +8°C° 0 mm 5 mps 746 mmHg 83%
01:00 +8°C° 0 mm 5 mps 745 mmHg 85%
02:00 +7°C° 0 mm 5 mps 745 mmHg 87%
03:00 +7°C° 0 mm 4 mps 745 mmHg 89%
04:00 +8°C° 1 mm 5 mps 744 mmHg 89%
05:00 +8°C° 1 mm 5 mps 744 mmHg 89%
06:00 +9°C° 0 mm 5 mps 743 mmHg 91%
07:00 +10°C° 0.1 mm 6 mps 743 mmHg 85%
08:00 +10°C° 0.1 mm 6 mps 743 mmHg 79%
09:00 +11°C° 0.1 mm 7 mps 743 mmHg 73%
10:00 +12°C° 0.2 mm 7 mps 743 mmHg 69%
11:00 +14°C° 0.2 mm 7 mps 743 mmHg 65%
12:00 +14°C° 0 mm 6 mps 743 mmHg 60%
13:00 +14°C° 0.1 mm 6 mps 743 mmHg 60%
14:00 +14°C° 0.1 mm 5 mps 742 mmHg 61%
15:00 +13°C° 0.1 mm 5 mps 742 mmHg 61%
16:00 +12°C° 0.4 mm 4 mps 742 mmHg 69%
17:00 +11°C° 0.4 mm 3 mps 741 mmHg 76%
18:00 +10°C° 0.4 mm 2 mps 741 mmHg 83%
19:00 +10°C° 0.9 mm 2 mps 741 mmHg 85%
20:00 +11°C° 0.9 mm 1 mps 741 mmHg 87%
21:00 +10°C° 0.9 mm 1 mps 741 mmHg 89%
22:00 +9°C° 1.3 mm 2 mps 741 mmHg 89%
23:00 +9°C° 1.3 mm 2 mps 741 mmHg 90%

Tomorrow, 25 September, Friday

Time Temperature Precipitation Wind Pressure Humidity
00:00 +8°C° 1.3 mm 3 mps 742 mmHg 91%
01:00 +8°C° 0.3 mm 3 mps 742 mmHg 91%
02:00 +7°C° 0.3 mm 4 mps 742 mmHg 91%
03:00 +7°C° 0.3 mm 4 mps 742 mmHg 91%
04:00 +7°C° 0.5 mm 6 mps 743 mmHg 88%
05:00 +7°C° 0.5 mm 8 mps 744 mmHg 85%
06:00 +7°C° 0.5 mm 9 mps 744 mmHg 82%
07:00 +7°C° 0.1 mm 10 mps 745 mmHg 79%
08:00 +8°C° 0.1 mm 10 mps 746 mmHg 76%
09:00 +8°C° 0.1 mm 11 mps 747 mmHg 73%
10:00 +8°C° 0.2 mm 10 mps 747 mmHg 72%
11:00 +8°C° 0.2 mm 10 mps 748 mmHg 72%
12:00 +8°C° 0.2 mm 10 mps 748 mmHg 72%
13:00 +8°C° 0.1 mm 10 mps 749 mmHg 71%
14:00 +8°C° 0.1 mm 10 mps 749 mmHg 70%
15:00 +8°C° 0.1 mm 10 mps 750 mmHg 68%
16:00 +8°C° 0 mm 9 mps 751 mmHg 67%
17:00 +9°C° 0 mm 8 mps 751 mmHg 67%
18:00 +9°C° 0 mm 7 mps 752 mmHg 66%
19:00 +7°C° 0 mm 8 mps 752 mmHg 67%
20:00 +7°C° 0 mm 8 mps 753 mmHg 69%
21:00 +7°C° 0 mm 8 mps 753 mmHg 70%
22:00 +6°C° 0 mm 8 mps 753 mmHg 69%
23:00 +6°C° 0 mm 8 mps 753 mmHg 68%

Day after tomorrow, 26 September, Saturday

Time Temperature Precipitation Wind Pressure Humidity
00:00 +6°C° 0 mm 8 mps 754 mmHg 68%
01:00 +5°C° 0 mm 8 mps 754 mmHg 67%
02:00 +5°C° 0 mm 8 mps 754 mmHg 67%
03:00 +5°C° 0 mm 8 mps 754 mmHg 67%
04:00 +5°C° 0 mm 8 mps 754 mmHg 68%
05:00 +4°C° 0 mm 8 mps 754 mmHg 69%
06:00 +4°C° 0 mm 7 mps 754 mmHg 70%
07:00 +5°C° 0 mm 8 mps 754 mmHg 69%
08:00 +6°C° 0 mm 8 mps 755 mmHg 68%
09:00 +7°C° 0 mm 8 mps 755 mmHg 68%
10:00 +9°C° 0 mm 8 mps 755 mmHg 67%
11:00 +9°C° 0 mm 8 mps 755 mmHg 65%
12:00 +10°C° 0 mm 8 mps 755 mmHg 64%
13:00 +10°C° 0 mm 8 mps 755 mmHg 64%
14:00 +10°C° 0 mm 7 mps 755 mmHg 64%
15:00 +10°C° 0 mm 7 mps 756 mmHg 64%
16:00 +10°C° 0 mm 7 mps 756 mmHg 66%
17:00 +9°C° 0 mm 7 mps 756 mmHg 67%
18:00 +9°C° 0 mm 7 mps 756 mmHg 69%
19:00 +8°C° 0 mm 7 mps 756 mmHg 72%
20:00 +8°C° 0 mm 7 mps 757 mmHg 74%
21:00 +7°C° 0 mm 6 mps 757 mmHg 77%
22:00 +7°C° 0 mm 6 mps 757 mmHg 76%
23:00 +8°C° 0 mm 7 mps 756 mmHg 75%

27 September, Sunday

Time Temperature Precipitation Wind Pressure Humidity
00:00 +8°C° 0 mm 7 mps 756 mmHg 74%
01:00 +8°C° 0 mm 7 mps 756 mmHg 73%
02:00 +8°C° 0 mm 7 mps 756 mmHg 72%
03:00 +8°C° 0 mm 7 mps 756 mmHg 72%
04:00 +7°C° 0 mm 8 mps 756 mmHg 73%
05:00 +7°C° 0 mm 8 mps 756 mmHg 74%
06:00 +7°C° 0 mm 8 mps 756 mmHg 75%
07:00 +7°C° 0 mm 8 mps 756 mmHg 75%
08:00 +9°C° 0 mm 8 mps 756 mmHg 74%
09:00 +10°C° 0 mm 9 mps 756 mmHg 73%
10:00 +10°C° 0 mm 9 mps 756 mmHg 72%
11:00 +11°C° 0 mm 8 mps 756 mmHg 70%
12:00 +12°C° 0 mm 8 mps 756 mmHg 69%
13:00 +12°C° 0 mm 8 mps 756 mmHg 70%
14:00 +12°C° 0 mm 7 mps 756 mmHg 70%
15:00 +12°C° 0 mm 7 mps 756 mmHg 71%
16:00 +11°C° 0 mm 6 mps 756 mmHg 73%
17:00 +12°C° 0 mm 5 mps 756 mmHg 75%
18:00 +10°C° 0 mm 5 mps 756 mmHg 76%
19:00 +10°C° 0 mm 5 mps 756 mmHg 77%
20:00 +10°C° 0 mm 4 mps 757 mmHg 78%
21:00 +10°C° 0 mm 4 mps 757 mmHg 79%
22:00 +8°C° 0 mm 4 mps 757 mmHg 80%
23:00 +8°C° 0 mm 4 mps 757 mmHg 81%

28 September, Monday

Time Temperature Precipitation Wind Pressure Humidity
00:00 +7°C° 0 mm 4 mps 757 mmHg 82%
01:00 +8°C° 0 mm 3 mps 757 mmHg 81%
02:00 +7°C° 0 mm 3 mps 757 mmHg 81%
03:00 +7°C° 0 mm 3 mps 757 mmHg 81%
04:00 +7°C° 0 mm 3 mps 757 mmHg 78%
05:00 +5°C° 0 mm 3 mps 757 mmHg 76%
06:00 +5°C° 0 mm 3 mps 757 mmHg 74%
07:00 +7°C° 0 mm 3 mps 757 mmHg 72%
08:00 +9°C° 0 mm 3 mps 757 mmHg 70%
09:00 +10°C° 0 mm 3 mps 757 mmHg 68%
10:00 +12°C° 0 mm 3 mps 757 mmHg 69%
11:00 +13°C° 0 mm 3 mps 757 mmHg 70%
12:00 +15°C° 0 mm 4 mps 757 mmHg 71%
13:00 +17°C° 0 mm 4 mps 756 mmHg 71%
14:00 +18°C° 0 mm 4 mps 756 mmHg 72%
15:00 +19°C° 0 mm 4 mps 756 mmHg 73%
16:00 +18°C° 0 mm 4 mps 756 mmHg 77%
17:00 +16°C° 0 mm 3 mps 756 mmHg 82%
18:00 +14°C° 0 mm 3 mps 756 mmHg 87%
19:00 +14°C° 0 mm 3 mps 756 mmHg 88%
20:00 +14°C° 0 mm 4 mps 756 mmHg 90%
21:00 +14°C° 0 mm 4 mps 756 mmHg 91%
22:00 +14°C° 0 mm 4 mps 756 mmHg 92%
23:00 +14°C° 0 mm 4 mps 757 mmHg 93%

29 September, Tuesday

Time Temperature Precipitation Wind Pressure Humidity
00:00 +14°C° 0 mm 3 mps 757 mmHg 94%
01:00 +13°C° 0 mm 3 mps 757 mmHg 94%
02:00 +12°C° 0 mm 3 mps 757 mmHg 93%
03:00 +12°C° 0 mm 2 mps 757 mmHg 93%
04:00 +12°C° 0 mm 2 mps 757 mmHg 92%
05:00 +10°C° 0 mm 2 mps 757 mmHg 92%
06:00 +10°C° 0 mm 2 mps 758 mmHg 91%
07:00 +12°C° 0 mm 1 mps 758 mmHg 85%
08:00 +13°C° 0 mm 1 mps 758 mmHg 78%
09:00 +14°C° 0 mm 1 mps 758 mmHg 72%
10:00 +15°C° 0 mm 1 mps 758 mmHg 67%
11:00 +16°C° 0 mm 1 mps 758 mmHg 63%
12:00 +16°C° 0 mm 0 mps 758 mmHg 59%
13:00 +18°C° 0 mm 1 mps 758 mmHg 59%
14:00 +18°C° 0 mm 1 mps 757 mmHg 60%
15:00 +18°C° 0 mm 1 mps 757 mmHg 61%
16:00 +16°C° 0 mm 2 mps 757 mmHg 67%
17:00 +16°C° 0 mm 2 mps 757 mmHg 72%
18:00 +15°C° 0 mm 2 mps 757 mmHg 78%
19:00 +14°C° 0 mm 2 mps 756 mmHg 80%
20:00 +14°C° 0 mm 2 mps 756 mmHg 83%
21:00 +13°C° 0 mm 1 mps 756 mmHg 85%
22:00 +13°C° 0 mm 1 mps 756 mmHg 86%
23:00 +13°C° 0 mm 1 mps 755 mmHg 86%
Show more